Regional Weather Roundup
Issued by NWS

Home | Current Version | Previous Version | Graphics & Text | Print | Product List | Glossary On
Versions: 1 2 3 4 5 6 7 8 9 10 11 12 13 14 15 16 17 18 19 20 21 22 23 24 25 26 27 28 29 30 31 32 33 34 35 36 37 38 39 40 41 42 43 44 45 46 47 48 49 50
000
ASUS43 KFSD 231302
RWRSD

WEATHER ROUNDUP FOR SOUTH DAKOTA
NATIONAL WEATHER SERVICE SIOUX FALLS SD
800 AM CDT WED APR 23 2014

NOTE: "FAIR" INDICATES FEW OR NO CLOUDS BELOW 12,000 FEET WITH NO
SIGNIFICANT WEATHER AND/OR OBSTRUCTIONS TO VISIBILITY.


SDZ001>005-009-010-012>017-231400-
NORTHWEST AND NORTH CENTRAL SOUTH DAKOTA

CITY           SKY/WX    TMP DP  RH WIND       PRES   REMARKS
MOBRIDGE       CLOUDY    51  37  58 SE29G38   29.55F
$$

SDZ012>016-024>037-041>051-057-063-072>074-231400-
SOUTHWEST AND SOUTH CENTRAL SOUTH DAKOTA

CITY           SKY/WX    TMP DP  RH WIND       PRES   REMARKS
RAPID CTY ARPT CLOUDY    56  43  61 CALM      29.43F
PIERRE         CLOUDY    52  35  52 E22       29.55R
CUSTER         CLOUDY    53  34  48 W17       29.56S
ELLSWORTH AFB  CLOUDY    59  41  51 W2        29.43S
PHILIP         CLOUDY    53  37  54 E12       29.48R
PINE RIDGE     CLOUDY    55  47  74 SW10      29.50S
WINNER         FAIR      56  33  42 SE22G33   29.54F
$$

SDZ004>011-016>023-039-040-231400-
NORTHEAST SOUTH DAKOTA

CITY           SKY/WX    TMP DP  RH WIND       PRES   REMARKS
ABERDEEN       LGT RAIN  48  38  68 SE17G28   29.78S
WATERTOWN      CLOUDY    47  37  68 SE15G25   29.84F
SISSETON         N/A     43  40  89 SE25G33   29.89S
$$

SDZ017-020-022-023-036>040-048>070-231400-
SOUTHEAST SOUTH DAKOTA

CITY           SKY/WX    TMP DP  RH WIND       PRES   REMARKS
SIOUX FALLS    CLOUDY    49  36  61 SE25G37   29.86R
HURON          CLOUDY    53  34  48 SE21G32   29.74R
CHAMBERLAIN      N/A     53  34  48 SE32G39   29.60F
MITCHELL       PTSUNNY   52  36  54 SE32G43   29.72F
YANKTON        PTSUNNY   52  36  54 E18G25    29.82S
$$

ABBREVIATIONS USED IN REMARKS
   TC - TEMPERATURE IN CELSIUS
  WCI - WIND CHILL INDEX
   HX - HEAT INDEX
  VSB - VISIBILITY




USA.gov is the U.S. government's official web portal to all federal, state and local government web resources and services.